Time,TemperatureF,DewpointF,PressureIn,WindDirection,WindDirectionDegrees,WindSpeedMPH,WindSpeedGustMPH,Humidity,HourlyPrecipIn,Conditions,Clouds,dailyrainin,SoftwareType,DateUTC
2013-12-02 00:23:00,37.0,32.0,-100.00,WNW,295,1.0,1.0,82,0.00,,,-99.99,,2013-12-02 05:23:00,
2013-12-02 00:53:00,37.0,32.0,-100.00,NNE,25,1.0,1.0,82,0.00,,,-99.99,,2013-12-02 05:53:00,
2013-12-02 01:22:00,35.0,31.0,-100.00,South,175,1.0,1.0,86,0.00,,,-99.99,,2013-12-02 06:22:00,
2013-12-02 01:52:00,35.0,31.0,-100.00,NE,40,0.0,0.0,85,0.00,,,-99.99,,2013-12-02 06:52:00,
2013-12-02 02:21:00,35.0,31.0,-100.00,ENE,70,0.0,1.0,88,0.00,,,-99.99,,2013-12-02 07:21:00,
2013-12-02 02:52:00,34.0,31.0,-100.00,WNW,290,0.0,1.0,90,0.00,,,-99.99,,2013-12-02 07:52:00,
2013-12-02 03:22:00,33.0,31.0,-100.00,WNW,290,0.0,1.0,90,0.00,,,-99.99,,2013-12-02 08:22:00,
2013-12-02 03:52:00,33.0,31.0,-100.00,WNW,290,0.0,0.0,91,0.00,,,-99.99,,2013-12-02 08:52:00,
2013-12-02 04:22:00,33.0,31.0,-100.00,ESE,120,0.0,0.0,90,0.00,,,-99.99,,2013-12-02 09:22:00,
2013-12-02 04:54:00,34.0,31.0,-100.00,SSW,210,0.0,1.0,90,0.00,,,-99.99,,2013-12-02 09:54:00,
2013-12-02 05:23:00,34.0,31.0,-100.00,NW,315,1.0,2.0,90,0.00,,,-99.99,,2013-12-02 10:23:00,
2013-12-02 05:52:00,34.0,31.0,-100.00,NNE,30,0.0,1.0,90,0.00,,,-99.99,,2013-12-02 10:52:00,
2013-12-02 06:22:00,34.0,31.0,-100.00,ENE,65,1.0,1.0,89,0.00,,,-99.99,,2013-12-02 11:22:00,
2013-12-02 06:52:00,34.0,31.0,-100.00,North,5,0.0,1.0,88,0.00,,,-99.99,,2013-12-02 11:52:00,
2013-12-02 07:22:00,35.0,32.0,-100.00,North,0,0.0,2.0,89,0.00,,,-99.99,,2013-12-02 12:22:00,
2013-12-02 07:52:00,35.0,32.0,-100.00,ESE,115,1.0,2.0,88,0.00,,,-99.99,,2013-12-02 12:52:00,
2013-12-02 08:22:00,35.0,32.0,-100.00,East,95,1.0,2.0,88,0.00,,,-99.99,,2013-12-02 13:22:00,
2013-12-02 08:52:00,35.0,32.0,-100.00,NNE,15,1.0,2.0,87,0.00,,,-99.99,,2013-12-02 13:52:00,
2013-12-02 09:22:00,37.0,33.0,-100.00,NE,40,1.0,2.0,85,0.00,,,-99.99,,2013-12-02 14:22:00,
2013-12-02 09:52:00,37.0,33.0,-100.00,NNE,20,2.0,4.0,83,0.00,,,-99.99,,2013-12-02 14:52:00,
2013-12-02 10:21:00,40.0,34.0,-100.00,NNE,15,2.0,4.0,80,0.00,,,-99.99,,2013-12-02 15:21:00,
2013-12-02 10:54:00,40.0,34.0,-100.00,ENE,70,2.0,5.0,78,0.00,,,-99.99,,2013-12-02 15:54:00,
2013-12-02 11:23:00,43.0,35.0,-100.00,ENE,65,3.0,6.0,75,0.00,,,-99.99,,2013-12-02 16:23:00,
2013-12-02 11:53:00,44.0,35.0,-100.00,NE,50,4.0,6.0,71,0.00,,,-99.99,,2013-12-02 16:53:00,
2013-12-02 12:22:00,47.0,36.0,-100.00,NNE,30,1.0,5.0,66,0.00,,,-99.99,,2013-12-02 17:22:00,
2013-12-02 12:52:00,47.0,36.0,-100.00,West,265,1.0,4.0,66,0.00,,,-99.99,,2013-12-02 17:52:00,
2013-12-02 13:22:00,47.0,36.0,-100.00,West,275,1.0,4.0,65,0.00,,,-99.99,,2013-12-02 18:22:00,
2013-12-02 13:52:00,47.0,36.0,-100.00,North,5,1.0,3.0,65,0.00,,,-99.99,,2013-12-02 18:52:00,
2013-12-02 14:22:00,47.0,36.0,-100.00,NW,315,1.0,2.0,65,0.00,,,-99.99,,2013-12-02 19:22:00,
2013-12-02 14:52:00,47.0,37.0,-100.00,North,5,1.0,4.0,66,0.00,,,-99.99,,2013-12-02 19:52:00,
2013-12-02 15:21:00,48.0,36.0,-100.00,NW,315,2.0,5.0,64,0.00,,,-99.99,,2013-12-02 20:21:00,
2013-12-02 15:52:00,47.0,36.0,-100.00,NE,40,4.0,6.0,66,0.00,,,-99.99,,2013-12-02 20:52:00,
2013-12-02 16:21:00,45.0,36.0,-100.00,ENE,60,3.0,6.0,70,0.00,,,-99.99,,2013-12-02 21:21:00,
2013-12-02 16:53:00,44.0,36.0,-100.00,NNE,15,2.0,5.0,73,0.00,,,-99.99,,2013-12-02 21:53:00,
2013-12-02 17:23:00,43.0,36.0,-100.00,NNE,25,2.0,4.0,74,0.00,,,-99.99,,2013-12-02 22:23:00,
2013-12-02 17:53:00,43.0,36.0,-100.00,NNE,30,3.0,5.0,76,0.00,,,-99.99,,2013-12-02 22:53:00,
2013-12-02 18:22:00,42.0,35.0,-100.00,NNE,30,2.0,4.0,78,0.00,,,-99.99,,2013-12-02 23:22:00,
2013-12-02 18:53:00,41.0,35.0,-100.00,NE,40,3.0,5.0,80,0.00,,,-99.99,,2013-12-02 23:53:00,
2013-12-02 19:21:00,40.0,35.0,-100.00,ENE,60,2.0,5.0,79,0.00,,,-99.99,,2013-12-03 00:21:00,
2013-12-02 19:52:00,40.0,34.0,-100.00,NE,35,3.0,6.0,80,0.00,,,-99.99,,2013-12-03 00:52:00,
2013-12-02 20:21:00,40.0,34.0,-100.00,NE,50,3.0,6.0,80,0.00,,,-99.99,,2013-12-03 01:21:00,
2013-12-02 20:52:00,39.0,34.0,-100.00,NE,45,3.0,6.0,81,0.55,,,-99.99,,2013-12-03 01:52:00,
2013-12-02 21:22:00,39.0,35.0,-100.00,NE,45,4.0,6.0,84,1.10,,,-99.99,,2013-12-03 02:22:00,
2013-12-02 21:52:00,38.0,35.0,-100.00,ENE,60,4.0,7.0,87,0.55,,,-99.99,,2013-12-03 02:52:00,
2013-12-02 22:21:00,38.0,35.0,-100.00,NE,45,3.0,6.0,89,0.55,,,-99.99,,2013-12-03 03:21:00,
2013-12-02 22:53:00,37.0,35.0,-100.00,NE,40,2.0,6.0,92,1.10,,,-99.99,,2013-12-03 03:53:00,
2013-12-02 23:23:00,37.0,35.0,-100.00,ENE,65,4.0,5.0,93,0.55,,,-99.99,,2013-12-03 04:23:00,
2013-12-02 23:52:00,37.0,35.0,-100.00,NE,45,4.0,6.0,94,1.10,,,-99.99,,2013-12-03 04:52:00,